Temperature
26 25 25 25 23 22 24 25 26 25 25 25 25 24 23 22 21 19 19 20 20 20 20 19 19 19 19 19 19 19 19 19 19 19 19 19 19 19 18 18 18 18 18 18 18 18 18 18 18
26 26 25 25 22 22 24 26 25 26 25 25 24 24 22 21 19 19 19 20 20 20 20 20 20 19 19 19 19 19 19 19 19 19 19 19 19 18 18 18 18 18 18 18 18 18 18 18 18
26 26 25 23 23 23 25 26 26 27 26 26 25 24 23 21 19 19 20 20 21 20 20 20 20 20 19 19 19 19 19 19 19 19 19 18 18 18 18 18 18 18 18 18 18 18 18 18 18
27 26 25 23 25 26 26 26 27 26 26 25 24 23 23 21 21 21 20 21 21 21 20 20 20 20 20 19 19 19 19 19 19 19 19 18 18 18 18 18 18 18 18 18 18 18 18 18 18
27 26 24 24 26 27 27 28 27 26 25 24 23 22 22 22 22 21 21 21 21 21 20 20 20 20 20 20 19 19 19 19 19 19 19 19 18 18 18 18 18 18 18 18 18 18 18 18 17
27 24 24 24 27 27 27 27 26 25 24 23 23 22 21 21 21 21 21 21 21 21 21 20 20 20 20 20 20 19 19 19 19 19 19 19 19 18 18 18 18 18 18 18 18 18 18 18 18
26 23 24 25 26 27 28 27 26 25 24 24 23 22 21 20 22 21 21 21 21 21 21 20 20 20 20 20 20 19 19 19 19 19 19 19 19 18 18 18 18 18 18 18 18 18 18 18 18
28 24 25 26 27 27 28 28 27 26 25 24 23 22 21 21 21 21 21 21 21 21 21 21 20 20 20 20 20 19 19 19 19 19 19 19 19 18 18 18 18 18 18 19 18 18 18 18 18
29 24 25 26 27 27 28 28 27 26 25 25 24 23 22 22 21 21 21 21 21 20 20 20 20 20 20 20 19 19 19 19 19 19 19 19 19 18 18 18 18 18 18 18 18 18 18 18 18
28 24 26 28 28 28 29 28 27 26 25 24 24 23 22 22 22 21 21 21 21 20 20 20 20 20 20 20 19 19 19 19 19 19 19 18 18 18 18 18 18 18 18 18 18 18 18 18 18
28 27 29 29 30 29 29 28 27 25 23 23 23 23 23 22 22 22 21 21 21 21 21 20 20 20 20 20 19 19 19 19 19 19 19 18 18 18 18 18 18 18 18 18 18 18 18 18 18
29 29 30 30 31 30 29 28 27 26 25 25 24 24 23 23 22 22 22 21 21 21 21 20 20 20 20 20 19 19 19 19 19 19 19 19 18 18 18 18 18 18 18 18 18 18 18 18 18
29 29 31 31 31 30 29 28 27 26 25 24 24 23 23 23 23 22 22 22 21 21 21 20 20 20 20 20 19 19 19 19 19 19 19 19 18 18 18 18 18 18 18 18 18 18 18 18 18
29 30 30 30 30 30 28 27 26 25 25 24 24 24 23 23 23 23 22 22 22 21 21 20 20 20 20 20 19 19 19 19 19 19 19 19 19 18 18 18 18 18 18 18 18 18 18 18 18
30 28 28 29 30 29 28 26 26 25 24 24 24 24 24 23 23 23 23 22 22 22 21 21 20 20 20 20 19 19 19 19 19 19 19 19 19 19 18 18 18 18 18 18 18 18 18 18 18
28 27 27 28 28 29 27 25 26 25 24 24 24 24 24 24 23 23 23 23 22 22 21 21 21 21 20 20 20 19 19 19 19 19 19 19 19 19 18 18 18 18 18 18 18 18 18 18 18
25 26 26 27 28 28 26 25 25 25 25 24 24 24 23 24 24 23 23 23 22 22 22 21 21 21 21 20 20 20 19 19 19 19 19 19 19 19 19 18 18 18 18 18 18 18 18 18 18
25 26 27 27 28 28 26 25 25 26 25 24 24 24 24 24 24 24 23 23 23 22 22 22 21 21 21 20 20 20 19 19 19 19 19 19 19 19 19 18 18 18 18 18 18 18 18 18 18
27 27 27 28 28 28 26 25 26 26 25 25 24 24 24 24 24 24 24 23 23 22 22 22 21 21 21 20 20 20 20 19 19 19 19 19 19 19 19 18 18 18 18 18 18 18 18 18 18
27 27 27 27 28 28 26 26 26 26 26 25 25 25 24 24 24 24 24 23 23 22 22 22 21 21 21 21 20 20 20 20 19 19 19 19 19 19 19 18 18 18 18 18 18 18 18 18 18
27 27 27 27 28 27 26 25 25 26 26 26 25 25 25 24 24 24 23 23 23 23 22 22 21 21 21 20 20 20 19 19 19 19 19 19 19 19 19 18 18 18 18 18 18 18 18 18 18
26 28 28 28 26 24 25 23 24 25 25 25 25 25 25 24 24 24 24 23 23 23 23 22 22 21 21 20 20 20 20 19 19 19 19 19 19 18 18 18 18 18 18 18 18 18 18 18 18
28 29 28 28 25 24 24 23 23 24 24 24 25 25 25 25 24 24 24 24 24 23 23 22 22 21 21 20 20 20 20 19 19 19 19 19 18 18 18 18 18 18 18 18 18 18 18 18 18
29 27 25 22 22 23 24 24 23 23 24 24 25 25 25 25 24 24 24 24 23 23 22 22 22 21 21 20 20 20 20 19 19 19 19 19 18 18 18 18 18 18 18 18 18 18 18 18 17
27 23 22 23 21 22 23 24 23 24 25 25 25 25 25 25 24 24 24 24 23 23 22 22 22 21 21 20 20 20 20 19 19 19 19 18 18 18 18 18 18 18 18 18 18 17 17 17 17
25 23 22 23 22 22 23 24 24 25 26 26 26 25 25 25 25 24 24 24 24 23 22 22 22 21 21 20 20 20 19 19 19 19 18 18 18 18 18 18 18 18 18 18 17 17 17 17 17
26 23 22 21 22 22 22 23 24 25 25 25 25 25 25 24 24 24 24 24 24 23 23 22 22 21 21 20 20 20 19 19 19 19 18 18 18 18 18 17 17 18 18 17 17 17 17 17 17
26 25 21 21 22 22 23 24 23 24 24 24 23 24 24 24 24 24 24 23 23 23 22 22 21 21 21 20 20 19 19 19 19 18 18 18 18 18 17 17 17 17 17 17 17 17 17 17 16
27 26 22 19 20 21 22 23 24 24 24 23 23 24 24 24 24 24 24 23 23 22 22 22 21 21 20 20 20 19 19 19 18 18 18 18 18 17 17 17 17 17 17 17 17 17 16 16 16
26 25 22 22 22 20 21 22 24 23 24 24 24 24 24 24 24 24 24 23 22 22 21 21 21 20 20 20 19 19 19 18 18 18 18 18 17 17 17 17 17 17 17 16 16 16 16 16 16
Wind_Speed
3 3 1 1 5 6 7 7 10 11 7 9 12 11 11 8 7 10 6 14 15 12 14 16 16 16 16 16 16 17 16 17 17 17 17 17 17 17 17 17 17 16 16 16 16 17 16 16 16
2 2 1 3 6 7 5 8 14 13 13 15 14 14 12 10 11 12 9 14 15 14 14 16 17 17 16 16 16 16 16 16 16 16 16 16 16 16 16 16 16 15 15 15 15 15 15 15 14
2 1 3 4 4 7 6 9 15 15 12 11 8 8 7 9 12 8 12 17 14 13 15 17 17 17 16 16 16 16 15 15 15 15 15 15 15 15 15 15 15 14 14 14 14 14 14 13 12
1 3 4 4 6 6 9 11 16 15 12 11 11 8 6 8 8 13 19 17 15 11 14 17 18 17 16 16 15 15 15 14 14 14 14 14 14 14 14 14 14 13 13 13 13 12 12 11 11
3 4 5 4 6 8 10 13 14 12 7 11 12 10 7 7 19 21 19 18 16 11 13 17 18 17 16 15 15 14 14 14 14 14 14 13 14 13 13 13 13 13 12 12 11 11 10 10 10
3 4 4 4 7 7 8 12 16 17 17 15 14 10 6 14 21 19 18 15 14 13 13 16 17 17 16 15 14 14 13 13 13 13 13 13 13 12 12 12 12 11 11 10 10 9 9 8 8
4 3 3 5 7 8 8 11 14 16 15 11 11 8 8 13 18 18 16 15 13 13 11 12 15 15 15 15 14 13 12 12 12 12 12 12 12 12 11 11 11 10 10 9 8 8 7 7 7
5 4 3 3 7 7 9 8 12 15 11 14 10 9 11 14 17 17 16 14 13 10 9 10 12 13 13 13 13 13 12 11 11 11 11 11 11 11 10 10 10 9 9 8 7 6 5 4 4
4 4 4 5 7 6 10 12 8 9 12 7 5 8 15 19 21 18 14 11 10 11 8 8 10 11 12 12 12 12 12 11 11 10 11 10 8 8 9 9 9 8 8 7 6 4 3 2 2
4 4 6 6 8 8 12 14 9 8 10 9 13 13 16 19 20 19 17 14 13 12 11 9 9 10 11 11 11 10 10 10 10 9 9 9 8 7 7 8 8 8 7 6 5 4 2 2 1
3 5 3 4 7 9 11 9 7 12 9 15 21 19 17 17 17 17 16 15 15 14 13 11 10 11 11 8 10 9 8 9 9 10 10 9 8 7 7 7 7 6 6 5 4 4 4 4 3
1 2 4 5 7 8 9 8 7 8 11 16 19 19 15 16 15 15 15 14 13 13 13 12 11 10 10 10 9 8 7 7 8 10 12 9 6 5 6 6 7 6 6 5 5 4 5 6 5
1 0 3 5 8 9 10 9 9 8 15 17 17 15 15 14 12 11 13 13 13 13 12 12 11 11 9 8 7 8 7 8 9 10 11 11 7 5 6 6 7 7 7 6 5 5 5 4 4
2 1 2 4 5 9 12 8 8 10 18 18 17 14 14 14 13 11 11 11 11 12 11 10 11 10 9 7 5 6 8 9 9 9 11 12 10 7 6 5 6 6 7 7 6 6 4 3 3
2 4 4 1 4 6 11 6 7 16 18 18 17 15 14 12 12 13 13 12 12 12 11 11 10 9 9 7 6 6 7 9 7 9 11 12 11 10 7 5 4 6 8 7 5 5 3 3 2
5 5 1 4 2 4 10 6 7 16 19 17 16 15 13 12 12 13 13 11 11 11 11 11 11 9 8 6 5 4 5 6 7 9 10 11 11 11 7 4 4 6 6 4 3 3 2 3 3
5 1 2 4 2 4 6 6 9 12 16 16 15 14 13 12 11 12 14 13 12 12 12 10 9 9 7 6 4 3 3 4 6 7 8 10 10 10 8 5 5 6 4 3 4 3 3 3 3
3 2 2 3 3 6 6 7 11 13 14 15 14 13 13 14 14 14 14 14 12 12 11 10 9 8 7 5 3 2 2 2 4 5 7 9 9 10 8 5 5 5 3 3 3 3 3 3 3
4 3 3 4 3 5 7 9 12 13 12 13 13 13 13 13 11 12 13 13 12 10 10 10 9 8 6 4 3 2 2 2 2 3 7 8 8 9 7 4 4 4 4 5 5 3 3 3 2
3 2 3 3 1 3 5 5 8 11 13 15 16 16 15 11 9 10 12 13 13 12 10 9 10 9 7 5 4 3 3 2 3 2 3 5 6 7 7 6 5 5 5 5 5 4 3 3 2
4 3 4 3 2 4 5 2 2 6 7 8 12 14 15 16 15 13 13 13 12 12 12 10 9 8 7 6 4 2 1 1 1 1 1 3 5 6 5 6 6 5 5 5 6 5 5 4 3
5 5 3 2 4 1 4 2 6 6 5 8 11 12 14 14 12 12 12 12 13 12 11 10 9 8 7 7 5 5 4 4 4 3 2 3 4 5 6 6 6 6 5 6 6 6 5 4 4
6 4 1 2 4 2 2 3 7 3 5 8 11 14 14 14 14 14 13 12 11 11 10 8 8 7 7 7 7 6 4 4 2 2 2 3 3 4 5 5 5 5 5 5 5 4 5 4 5
3 4 7 7 5 1 4 4 5 6 11 10 9 11 13 14 13 13 11 9 8 8 8 8 7 6 7 7 6 6 6 4 3 2 2 3 3 3 4 4 4 4 4 5 5 5 5 5 5
5 7 4 5 4 5 5 3 8 9 10 11 11 10 11 11 12 12 11 11 10 10 9 8 9 7 6 6 6 6 6 5 4 4 3 3 2 2 4 4 3 4 4 4 4 4 5 4 4
5 11 9 5 5 5 4 4 7 6 6 8 9 9 10 10 11 12 12 12 11 12 10 9 9 7 7 6 6 5 5 4 3 3 3 3 2 2 2 3 3 3 3 4 4 3 4 3 4
6 6 10 8 3 0 5 5 5 2 3 5 8 9 9 10 11 12 10 9 9 9 9 9 9 7 7 7 6 5 5 4 3 3 2 1 1 1 1 2 2 2 2 2 2 2 3 2 2
9 9 7 6 4 2 5 4 4 4 6 6 8 10 9 9 11 11 10 9 8 8 8 7 7 7 5 5 5 4 4 4 3 2 2 1 0 1 1 2 2 2 1 1 1 1 0 1 0
5 5 6 6 6 7 3 7 6 9 9 9 9 10 11 9 11 11 10 10 9 8 8 7 7 6 5 5 4 4 3 2 2 2 1 1 1 1 2 2 3 3 3 2 2 2 2 1 1
9 9 9 6 4 6 5 7 7 6 7 9 9 9 10 10 10 10 10 9 8 8 7 7 6 6 5 5 4 4 3 3 3 2 2 2 2 2 2 2 3 3 3 3 4 3 3 3 2
Wind_Direction
249 242 183 61 53 60 82 94 96 85 67 68 79 84 83 67 104 127 135 134 133 131 129 123 119 115 111 108 105 103 101 100 98 98 98 98 99 101 101 101 100 100 101 102 103 103 104 105 107
235 211 106 55 77 81 78 96 93 96 115 104 84 81 76 72 90 115 126 135 134 130 129 127 123 119 115 112 108 106 104 103 102 100 101 101 103 104 104 103 102 102 103 104 105 106 107 107 108
258 190 78 67 100 119 114 108 110 107 108 100 93 71 74 107 116 123 139 139 132 128 130 131 127 123 119 116 113 110 108 107 106 104 104 104 105 106 106 106 105 105 105 107 107 107 107 108 109
46 45 46 71 109 127 126 123 116 106 83 79 93 76 75 114 120 133 139 137 130 129 133 135 131 127 124 122 119 116 114 112 111 108 108 108 108 109 109 110 110 110 110 110 109 108 106 106 107
76 67 50 68 95 103 115 118 117 103 87 90 93 94 81 96 122 134 139 138 135 135 137 137 136 133 131 128 125 123 121 119 116 114 113 112 112 112 112 114 114 114 113 113 112 109 106 103 103
52 66 74 95 103 108 114 116 107 101 109 106 104 102 102 128 132 139 140 138 138 140 140 142 142 139 137 135 133 131 128 126 123 122 120 118 117 117 117 118 119 119 119 119 117 114 110 104 99
119 99 127 130 118 123 130 126 119 125 126 125 125 108 125 143 143 142 139 136 137 140 141 143 146 145 143 142 141 139 135 133 131 129 127 125 124 124 124 125 125 126 127 127 124 122 117 110 103
150 105 97 121 125 133 137 119 130 132 120 132 133 132 152 157 143 139 136 136 138 142 147 148 147 147 148 150 149 147 145 143 142 139 137 135 134 132 131 132 134 135 137 138 137 134 127 115 109
125 92 140 159 140 145 129 113 117 111 127 148 127 133 150 144 138 137 135 137 146 152 161 160 156 156 157 159 160 159 157 157 155 154 151 146 141 140 143 145 145 144 147 152 155 156 152 136 128
109 132 190 177 152 147 134 128 127 107 112 104 108 122 135 138 142 144 150 157 162 167 174 172 168 169 170 170 166 170 169 169 169 169 165 163 164 165 164 164 162 160 162 168 178 190 213 235 239
141 159 170 142 143 136 132 131 117 122 129 145 143 146 145 144 148 153 160 165 169 171 173 176 175 176 178 172 171 181 182 180 185 186 184 179 178 177 171 172 177 179 183 194 209 228 249 260 249
136 186 140 137 130 128 135 132 119 135 156 155 149 149 147 151 155 160 164 168 168 171 176 175 178 179 181 177 181 185 187 188 192 197 192 181 172 170 174 183 188 192 199 209 222 236 252 260 253
78 96 103 124 123 125 120 125 124 128 137 145 147 148 153 157 159 161 161 164 164 169 174 173 174 176 178 176 187 185 191 194 195 194 192 184 175 176 180 188 195 202 206 209 223 232 242 246 244
274 48 81 110 111 120 119 119 111 139 144 150 156 160 165 166 165 160 159 161 163 165 167 170 169 170 169 171 178 179 189 193 192 190 189 185 181 180 179 185 195 206 208 212 218 227 225 231 231
353 45 21 39 117 129 113 96 142 152 153 159 167 171 173 175 170 169 168 165 165 162 162 166 168 166 166 167 170 171 176 180 186 191 190 187 184 182 180 184 194 210 209 208 217 230 226 231 223
18 44 28 282 148 149 115 154 176 159 159 167 175 179 180 182 179 174 168 165 166 160 161 167 169 165 166 164 164 169 171 172 186 191 190 190 189 184 177 182 198 208 207 198 202 208 214 233 228
17 12 267 277 218 140 116 166 181 170 169 174 180 183 183 183 183 176 172 170 172 168 166 170 166 165 166 165 165 171 169 176 186 190 192 194 192 189 181 189 202 202 200 203 217 202 198 219 230
255 259 273 235 225 131 133 176 179 180 179 183 185 185 186 187 188 180 177 175 172 170 168 168 165 169 167 160 152 152 165 188 187 191 200 200 198 193 188 194 205 197 188 205 210 213 216 218 223
229 256 250 245 208 133 154 174 188 186 187 186 189 190 189 192 188 177 175 174 168 169 169 169 168 173 164 156 160 170 197 209 214 210 207 205 205 203 197 201 207 201 202 210 210 206 222 234 207
246 283 274 284 267 131 152 174 192 188 193 192 191 188 186 182 181 179 177 175 174 175 176 175 174 174 172 171 169 173 180 205 216 225 203 203 204 206 209 203 204 204 208 221 218 206 206 232 188
271 226 223 226 342 42 88 16 216 213 211 203 196 189 184 184 188 185 182 182 176 179 179 181 179 173 173 169 155 148 112 327 262 241 220 222 219 224 220 211 208 209 206 218 222 210 202 219 227
258 241 185 161 99 264 121 197 263 222 219 203 197 190 189 188 184 184 185 184 182 184 180 170 170 171 172 167 165 166 179 206 225 217 219 235 230 231 229 221 214 213 212 218 225 215 208 199 223
230 226 139 125 118 35 22 139 272 228 207 215 203 195 192 187 178 181 188 189 184 178 173 165 163 175 174 172 177 183 198 211 219 212 221 248 256 248 244 233 222 222 219 220 222 215 213 208 211
198 50 32 44 69 3 247 166 264 218 206 205 204 191 187 181 176 175 173 169 165 163 163 159 164 178 179 177 181 187 196 206 212 214 219 249 260 262 261 247 233 229 226 229 225 216 214 217 218
112 94 40 5 13 255 260 169 243 236 207 190 185 180 175 173 171 166 163 165 162 160 164 166 172 179 183 184 186 189 191 194 203 211 220 238 255 265 266 261 245 234 228 224 217 216 222 218 218
171 138 152 181 210 272 321 225 255 249 199 168 161 155 156 163 164 165 170 170 167 168 168 169 174 181 183 189 193 188 185 191 205 211 211 224 233 250 263 269 264 252 231 223 210 212 225 224 225
158 169 165 141 163 308 290 288 313 19 127 141 139 137 150 160 163 165 166 163 162 166 168 170 173 175 178 187 185 181 184 189 198 206 203 219 249 263 290 294 289 277 241 219 198 208 224 220 228
164 154 101 116 147 234 290 278 239 215 176 159 144 141 148 159 163 159 153 154 154 155 149 156 161 168 168 173 178 182 188 191 188 177 174 186 263 5 22 6 2 4 37 77 113 128 164 130 290
163 136 120 129 152 153 222 267 232 200 182 168 162 152 148 154 156 152 153 155 151 147 148 153 158 154 155 162 163 155 159 156 151 146 163 131 66 55 48 38 45 48 52 57 73 75 90 110 67
173 175 148 155 206 162 166 263 271 185 169 149 148 146 143 147 148 145 144 141 140 141 144 149 152 155 157 152 142 135 123 116 112 105 99 96 73 58 61 62 60 52 52 60 68 68 63 73 66
Height
1504 1503 1503 1503 1506 1517 1521 1515 1508 1508 1511 1512 1512 1513 1517 1523 1529 1540 1539 1540 1542 1543 1544 1545 1546 1546 1546 1547 1547 1547 1547 1547 1548 1548 1548 1549 1549 1550 1550 1551 1551 1552 1552 1553 1553 1554 1554 1555 1556
1504 1503 1505 1505 1516 1532 1526 1513 1511 1511 1513 1513 1515 1518 1520 1528 1530 1534 1538 1541 1543 1544 1545 1546 1547 1548 1548 1548 1549 1549 1549 1550 1550 1550 1551 1551 1551 1552 1552 1553 1553 1554 1555 1555 1556 1556 1557 1558 1558
1505 1504 1505 1509 1519 1527 1524 1513 1512 1513 1514 1513 1517 1521 1525 1531 1534 1536 1539 1542 1544 1545 1547 1548 1549 1549 1550 1550 1551 1551 1551 1552 1552 1552 1553 1553 1554 1554 1555 1555 1556 1556 1557 1557 1558 1559 1559 1560 1561
1506 1506 1507 1515 1520 1513 1511 1511 1512 1514 1517 1517 1518 1525 1529 1534 1534 1537 1540 1543 1545 1546 1548 1549 1550 1551 1551 1552 1552 1553 1553 1554 1554 1554 1555 1555 1556 1556 1557 1557 1558 1558 1559 1560 1560 1561 1562 1563 1563
1507 1507 1514 1522 1518 1511 1509 1510 1511 1513 1517 1521 1520 1528 1533 1536 1537 1539 1542 1544 1546 1547 1549 1550 1551 1552 1553 1553 1554 1554 1555 1556 1556 1556 1557 1557 1558 1558 1559 1559 1560 1560 1561 1562 1562 1563 1564 1565 1565
1508 1509 1524 1528 1518 1511 1510 1511 1512 1516 1521 1524 1525 1530 1537 1538 1539 1541 1544 1546 1548 1548 1550 1551 1553 1553 1554 1555 1555 1556 1556 1557 1558 1558 1558 1559 1559 1560 1561 1561 1562 1562 1563 1564 1565 1565 1566 1567 1568
1509 1514 1523 1521 1519 1515 1512 1511 1512 1517 1522 1524 1526 1531 1538 1541 1541 1543 1545 1547 1549 1550 1551 1552 1554 1555 1555 1556 1557 1557 1558 1558 1559 1560 1560 1560 1561 1562 1562 1563 1563 1564 1565 1565 1566 1567 1568 1569 1569
1507 1512 1519 1519 1518 1516 1511 1512 1514 1516 1521 1525 1526 1529 1536 1540 1542 1544 1546 1548 1550 1552 1553 1554 1555 1556 1557 1557 1558 1558 1559 1560 1560 1561 1562 1562 1563 1563 1564 1565 1565 1566 1566 1567 1568 1569 1570 1571 1571
1506 1516 1523 1518 1516 1514 1510 1512 1517 1518 1520 1524 1526 1528 1533 1538 1542 1544 1547 1549 1551 1552 1554 1555 1556 1556 1557 1558 1559 1560 1560 1561 1562 1562 1563 1564 1564 1565 1566 1566 1567 1567 1568 1569 1569 1570 1571 1572 1573
1505 1518 1514 1506 1506 1508 1510 1511 1515 1520 1522 1525 1528 1532 1536 1539 1541 1543 1546 1548 1550 1552 1554 1555 1556 1557 1558 1559 1560 1560 1561 1562 1563 1564 1564 1565 1565 1566 1567 1567 1568 1569 1569 1570 1571 1571 1572 1573 1573
1502 1507 1503 1502 1504 1506 1509 1512 1514 1518 1524 1524 1526 1531 1536 1539 1541 1543 1545 1547 1550 1552 1553 1555 1556 1558 1558 1559 1560 1561 1562 1563 1564 1564 1565 1565 1566 1567 1567 1568 1569 1570 1570 1571 1571 1572 1573 1573 1574
1501 1500 1500 1502 1503 1506 1509 1512 1516 1517 1521 1523 1525 1529 1534 1538 1540 1543 1545 1547 1549 1551 1553 1555 1556 1557 1558 1560 1561 1562 1562 1563 1564 1565 1565 1566 1566 1567 1568 1569 1569 1570 1571 1571 1572 1572 1573 1574 1574
1500 1501 1500 1501 1503 1505 1508 1512 1515 1519 1522 1525 1528 1532 1534 1537 1540 1543 1545 1547 1549 1550 1552 1554 1555 1556 1558 1559 1560 1561 1562 1563 1564 1565 1565 1566 1567 1567 1568 1568 1569 1570 1571 1572 1572 1573 1573 1573 1574
1501 1501 1501 1503 1504 1506 1509 1514 1516 1522 1523 1527 1529 1532 1534 1537 1539 1542 1544 1546 1548 1550 1551 1553 1555 1556 1557 1558 1560 1561 1562 1562 1564 1564 1565 1566 1566 1567 1567 1568 1569 1569 1570 1571 1572 1572 1572 1573 1573
1502 1503 1505 1504 1504 1508 1510 1519 1518 1520 1523 1527 1529 1531 1534 1536 1539 1540 1542 1545 1547 1549 1551 1552 1554 1556 1557 1558 1559 1560 1561 1562 1563 1563 1564 1565 1565 1566 1567 1567 1568 1568 1569 1570 1570 1571 1571 1572 1572
1504 1511 1519 1509 1506 1508 1514 1529 1520 1520 1522 1526 1529 1531 1533 1535 1537 1539 1541 1544 1546 1548 1549 1552 1553 1554 1556 1557 1558 1560 1560 1561 1562 1562 1563 1563 1564 1565 1565 1566 1567 1567 1568 1568 1569 1569 1570 1570 1570
1517 1524 1523 1514 1505 1506 1514 1524 1520 1522 1522 1524 1527 1529 1531 1534 1536 1537 1540 1542 1544 1546 1548 1550 1551 1553 1555 1556 1557 1558 1559 1560 1561 1561 1562 1562 1563 1563 1564 1564 1565 1565 1566 1566 1567 1567 1568 1568 1568
1527 1524 1521 1517 1507 1506 1514 1518 1517 1520 1522 1523 1525 1527 1529 1531 1532 1535 1538 1540 1542 1545 1547 1549 1550 1552 1553 1555 1556 1557 1558 1558 1559 1560 1560 1560 1561 1561 1562 1562 1563 1563 1564 1564 1565 1565 1566 1566 1567
1515 1518 1520 1513 1503 1506 1513 1516 1516 1517 1520 1522 1524 1526 1527 1529 1532 1534 1537 1539 1541 1544 1546 1547 1548 1550 1551 1553 1554 1555 1556 1557 1557 1558 1558 1558 1558 1559 1559 1559 1559 1559 1560 1561 1562 1562 1563 1563 1564
1511 1518 1518 1511 1504 1507 1514 1516 1513 1514 1515 1516 1518 1521 1523 1527 1530 1533 1535 1537 1539 1541 1543 1545 1546 1548 1549 1551 1552 1553 1554 1555 1556 1556 1556 1556 1556 1555 1555 1555 1555 1556 1557 1558 1559 1559 1560 1560 1561
1511 1515 1515 1514 1508 1508 1516 1525 1519 1515 1514 1515 1517 1518 1520 1523 1526 1530 1532 1534 1537 1540 1541 1543 1545 1547 1548 1549 1550 1552 1552 1553 1553 1553 1553 1553 1553 1552 1553 1552 1552 1553 1554 1554 1555 1556 1556 1557 1558
1515 1503 1504 1508 1519 1529 1523 1544 1526 1516 1515 1513 1514 1516 1518 1521 1524 1528 1530 1533 1534 1537 1539 1541 1543 1545 1546 1547 1548 1549 1549 1549 1550 1551 1551 1550 1550 1549 1549 1549 1549 1549 1550 1550 1551 1552 1553 1553 1554
1503 1497 1502 1507 1518 1530 1528 1540 1533 1518 1518 1513 1511 1513 1515 1518 1521 1524 1527 1531 1533 1536 1538 1539 1541 1543 1544 1545 1546 1547 1547 1547 1548 1548 1548 1547 1547 1547 1546 1546 1545 1546 1546 1546 1547 1548 1548 1549 1550
1495 1502 1509 1519 1530 1546 1532 1537 1536 1520 1512 1509 1508 1510 1512 1515 1518 1521 1525 1529 1532 1534 1536 1538 1539 1540 1542 1543 1544 1544 1545 1546 1546 1546 1545 1545 1544 1544 1543 1543 1542 1542 1542 1542 1543 1544 1545 1545 1546
1499 1522 1545 1548 1557 1552 1530 1532 1530 1506 1500 1501 1504 1507 1509 1513 1516 1520 1524 1527 1529 1531 1534 1536 1537 1537 1539 1541 1542 1543 1543 1544 1544 1543 1543 1543 1542 1541 1540 1540 1539 1539 1539 1539 1540 1540 1540 1541 1542
1503 1517 1546 1557 1559 1550 1531 1532 1516 1498 1497 1498 1501 1504 1508 1511 1514 1518 1521 1524 1526 1529 1531 1533 1534 1536 1537 1539 1540 1541 1541 1542 1542 1542 1541 1540 1539 1539 1538 1537 1536 1536 1535 1536 1536 1536 1537 1538 1538
1502 1512 1515 1536 1541 1548 1541 1525 1508 1497 1498 1499 1501 1504 1507 1510 1513 1516 1520 1523 1525 1527 1529 1531 1533 1534 1535 1537 1538 1539 1540 1540 1540 1540 1539 1539 1538 1537 1536 1535 1535 1534 1534 1533 1533 1533 1534 1534 1535
1490 1499 1521 1535 1550 1556 1543 1531 1524 1507 1503 1501 1502 1503 1506 1510 1512 1515 1519 1522 1524 1527 1529 1531 1532 1533 1534 1536 1537 1538 1539 1539 1539 1538 1538 1537 1536 1536 1535 1534 1533 1533 1532 1531 1531 1531 1531 1531 1532
1493 1500 1514 1531 1537 1551 1553 1538 1503 1500 1498 1499 1501 1502 1505 1508 1511 1514 1517 1521 1524 1526 1528 1530 1532 1532 1533 1535 1536 1537 1537 1537 1537 1537 1536 1536 1535 1534 1533 1533 1532 1531 1530 1530 1530 1529 1529 1529 1529
1485 1494 1509 1528 1534 1538 1543 1533 1494 1494 1494 1496 1500 1503 1505 1508 1511 1514 1517 1521 1524 1526 1528 1530 1531 1532 1533 1534 1535 1536 1536 1536 1536 1535 1535 1534 1533 1533 1532 1532 1531 1530 1529 1529 1529 1528 1528 1528 1527